Weather History for Hollywood, FL

Change the Weather History Date:

Sunday, November 18, 2012

  Actual Average (KFLL) Record (KFLL)
Temperature  
Mean Temperature 74 °F 75 °F  
Max Temperature 81 °F 81 °F 89 °F (1921)
Min Temperature 66 °F 69 °F 42 °F (1951)
Degree Days  
Heating Degree Days 0 0  
Month to date heating degree days 0  
Since 1 July heating degree days 0  
Cooling Degree Days 8 10  
Month to date cooling degree days 206  
Year to date cooling degree days 4400  
Growing Degree Days 24 (Base 50)    
Moisture  
Dew Point 64 °F    
Average Humidity 78    
Maximum Humidity 94    
Minimum Humidity 52    
Precipitation  
Precipitation 0.00 in 0.09 in 2.14 in (1959)
Month to date precipitation 2.20  
Year to date precipitation 58.68  
Snow  
Snow 0.00 in - - ()
Month to date snowfall  
Since 1 July snowfall  
Since 1 September snowfall  
Snow Depth -    
Sea Level Pressure  
Sea Level Pressure 30.09 in    
Wind  
Wind Speed 8 mph (North)    
Max Wind Speed 15 mph    
Max Gust Speed 18 mph    
Visibility 9 miles    
Events Rain    
T = Trace of Precipitation, MM = Missing Value Source: NWS Daily Summary

Daily Weather History Graph

Daily Weather History Graph

Search for Another Location

Airport:

Trip Planner

Search our weather history database for the weather conditions in past years. The results will help you decide how hot, cold, wet, or windy it might be!

Date:

Astronomy

Nov. 18, 2012 Rise Set
Actual Time 6:41 AM EST 5:30 PM EST
Civil Twilight 6:17 AM EST 5:55 PM EST
Nautical Twilight 5:49 AM EST 6:22 PM EST
Astronomical Twilight 5:21 AM EST 6:50 PM EST
Moon 11:13 AM EST (11/18) 10:40 PM EST (11/18)
Length of Visible Light 11h 37m
Length of Day
10h 48m
Waxing Crescent, 30% of the Moon is Illuminated
Nov 18
Waxing Crescent
Nov 20
First Quarter
Nov 28
Full
Dec 6
Last Quarter
Dec 13
New

Hourly Weather History & Observations

Time (EST) Temp. Heat Index Dew Point Humidity Pressure Visibility Wind Dir Wind Speed Gust Speed Precip Events Conditions
12:53 AM 69.1 °F - 64.9 °F 87% 30.06 in 10.0 mi NNE 5.8 mph - N/A   Partly Cloudy
1:53 AM 68.0 °F - 64.9 °F 90% 30.06 in 10.0 mi Calm Calm - N/A   Partly Cloudy
2:53 AM 69.1 °F - 64.9 °F 87% 30.05 in 10.0 mi NNW 6.9 mph - N/A   Clear
3:53 AM 68.0 °F - 64.0 °F 87% 30.05 in 10.0 mi North 6.9 mph - N/A   Clear
4:53 AM 66.9 °F - 64.0 °F 90% 30.05 in 10.0 mi NNW 5.8 mph - N/A   Clear
5:53 AM 66.9 °F - 64.9 °F 93% 30.06 in 10.0 mi North 5.8 mph - N/A   Partly Cloudy
6:53 AM 68.0 °F - 64.9 °F 90% 30.08 in 10.0 mi NW 9.2 mph - N/A   Partly Cloudy
7:53 AM 70.0 °F - 66.0 °F 87% 30.10 in 9.0 mi North 10.4 mph - 0.00 in Rain Light Rain
8:53 AM 75.0 °F - 66.0 °F 73% 30.11 in 10.0 mi North 9.2 mph - 0.00 in   Clear
9:53 AM 75.9 °F - 66.0 °F 71% 30.11 in 10.0 mi North 15.0 mph - N/A   Partly Cloudy
10:53 AM 79.0 °F - 64.0 °F 60% 30.10 in 10.0 mi North 12.7 mph - N/A   Clear
11:53 AM 81.0 °F 82.7 °F 64.9 °F 58% 30.09 in 10.0 mi NE 13.8 mph - N/A   Mostly Cloudy
12:53 PM 81.0 °F 81.9 °F 62.1 °F 52% 30.08 in 10.0 mi NNE 11.5 mph - N/A   Overcast
1:53 PM 79.0 °F - 61.0 °F 54% 30.06 in 10.0 mi NNE 12.7 mph - N/A   Mostly Cloudy
2:53 PM 78.1 °F - 63.0 °F 60% 30.06 in 10.0 mi North 11.5 mph - N/A   Overcast
3:53 PM 78.1 °F - 64.0 °F 62% 30.06 in 10.0 mi North 13.8 mph 18.4 mph N/A   Overcast
4:53 PM 75.9 °F - - N/A% 30.07 in 10.0 mi North 6.9 mph - N/A   Scattered Clouds
5:53 PM 73.9 °F - 63.0 °F 68% 30.08 in 10.0 mi North 9.2 mph - N/A   Partly Cloudy
6:53 PM 72.0 °F - 64.0 °F 76% 30.10 in 10.0 mi North 11.5 mph - N/A   Clear
7:53 PM 70.0 °F - 64.0 °F 81% 30.12 in 9.0 mi North 8.1 mph - N/A   Clear
8:53 PM 70.0 °F - 64.0 °F 81% 30.14 in 9.0 mi North 9.2 mph - N/A   Clear
9:53 PM 68.0 °F - 64.0 °F 87% 30.13 in 8.0 mi North 10.4 mph - N/A   Clear
10:37 PM 68.0 °F - 64.4 °F 88% 30.13 in 8.0 mi North 6.9 mph - N/A   Overcast
10:53 PM 68.0 °F - 64.0 °F 87% 30.14 in 7.0 mi North 8.1 mph - N/A   Overcast
11:20 PM 68.0 °F - 64.4 °F 88% 30.13 in 7.0 mi North 8.1 mph - N/A   Overcast
11:45 PM 66.2 °F - 64.4 °F 94% 30.12 in 7.0 mi North 6.9 mph - N/A   Overcast